Date String (YYYY-MM-DD hh:mm:ss) UTC,Instrument flags,absolute air pressure of the measurement (hPa),sample flow rate (lpm),inlet stack bypass flow (lpm),air temperature of the measurement (°C),ambient temperature measured by the external sensor (°C),aerosol sample conditioner tube jacket temperature (°C),OPC LED temperature (°C),internal box temperature (°C),relative humidity of the measurement (%),span deviation,mass concentration of particles derived from Lorenz-Mie calculation of OPC scattering (μg/m³),mass concentration of particles derived from Lorenz-Mie calculation of OPC scattering (μg/m³),mass concentration of particles derived from Lorenz-Mie calculation of OPC scattering (μg/m³)
DateTimeUTC,F1_M11,P_M11,Q1_M11,Q2_M11,T1_M11,T2_M11,T3_M11,T4_M11,T5_M11,U1_M11,ZSPAN_M11,X0_M11,X2_M11,X1_M11
2023-12-14 07:00:00,SystemResetWarning,0835.6,5.00,000.00,018.7,017.7,000.0,027.1,020.0,23.4,-000.2,0024.12,0019.07,0018.18
2023-12-14 07:01:00,SystemResetWarning,0835.6,4.99,000.00,018.7,017.7,000.0,027.1,020.0,23.4,0000.1,0024.11,0019.05,0018.18
2023-12-14 07:02:00,SystemResetWarning,0835.6,4.99,000.00,018.7,017.7,000.0,027.1,020.0,23.4,0000.1,0024.37,0019.06,0018.19
2023-12-14 07:03:00,SystemResetWarning,0835.5,5.01,000.00,018.7,017.7,000.0,027.1,020.0,23.4,0000.1,0024.49,0019.05,0018.18
2023-12-14 07:04:00,SystemResetWarning,0835.4,5.01,000.00,018.7,017.7,000.0,027.1,020.0,23.3,0000.2,0024.43,0019.03,0018.18
2023-12-14 07:05:00,SystemResetWarning,0835.4,5.00,000.00,018.7,017.7,000.0,027.1,020.0,23.3,0000.3,0024.27,0019.06,0018.24
2023-12-14 07:06:00,SystemResetWarning,0835.3,5.00,000.00,018.7,017.7,000.0,027.1,020.0,23.3,0000.3,0024.34,0019.14,0018.30
2023-12-14 07:07:00,SystemResetWarning,0835.4,4.99,000.00,018.7,017.7,000.0,027.1,020.0,23.3,0000.3,0024.80,0019.14,0018.32
2023-12-14 07:08:00,SystemResetWarning,0835.4,4.99,000.00,018.7,017.7,000.0,027.1,020.0,23.3,0000.3,0025.21,0019.24,0018.40
2023-12-14 07:09:00,SystemResetWarning,0835.4,5.00,000.00,018.7,017.7,000.0,027.1,020.0,23.3,0000.5,0024.82,0019.34,0018.48
2023-12-14 07:10:00,SystemResetWarning,0835.3,5.00,000.00,018.7,017.7,000.0,027.1,020.0,23.3,0000.6,0024.72,0019.42,0018.53
2023-12-14 07:11:00,SystemResetWarning,0835.3,5.00,000.00,018.7,017.6,000.0,027.1,020.0,23.3,0000.5,0024.80,0019.47,0018.56
2023-12-14 07:12:00,SystemResetWarning,0835.4,5.00,000.00,018.7,017.6,000.0,027.1,020.0,23.3,0000.4,0024.77,0019.49,0018.60
2023-12-14 07:13:00,SystemResetWarning,0835.3,5.00,000.00,018.7,017.6,000.0,027.1,020.0,23.3,0000.2,0024.66,0019.57,0018.68
2023-12-14 07:14:00,SystemResetWarning,0835.2,5.00,000.00,018.7,017.6,000.0,027.1,020.0,23.3,0000.2,0024.54,0019.65,0018.74
2023-12-14 07:15:00,SystemResetWarning,0835.2,5.00,000.00,018.7,017.6,000.0,027.1,020.0,23.3,0000.2,0024.63,0019.70,0018.79
2023-12-14 07:16:00,SystemResetWarning,0835.3,5.00,000.00,018.7,017.6,000.0,027.1,020.0,23.3,0000.2,0024.59,0019.68,0018.78
2023-12-14 07:17:00,SystemResetWarning,0835.2,5.00,000.00,018.7,017.6,000.0,027.1,020.0,23.3,0000.2,0024.50,0019.69,0018.81
2023-12-14 07:18:00,SystemResetWarning,0835.3,5.00,000.00,018.7,017.6,000.0,027.1,020.0,23.3,0000.3,0024.03,0019.76,0018.86
2023-12-14 07:19:00,SystemResetWarning,0835.2,5.00,000.00,018.7,017.6,000.0,027.1,020.0,23.3,0000.3,0023.77,0019.75,0018.88
2023-12-14 07:20:00,SystemResetWarning,0835.3,5.00,000.00,018.7,017.6,000.0,027.2,020.0,23.3,0000.2,0024.05,0019.75,0018.92
2023-12-14 07:21:00,SystemResetWarning,0835.2,5.00,000.00,018.7,017.6,000.0,027.1,020.0,23.3,0000.1,0024.11,0019.72,0018.94
2023-12-14 07:22:00,SystemResetWarning,0835.2,5.00,000.00,018.7,017.6,000.0,027.1,020.0,23.3,0000.3,0024.44,0019.75,0019.03
2023-12-14 07:23:00,SystemResetWarning,0835.2,5.00,000.00,018.7,017.6,000.0,027.1,020.0,23.3,0000.4,0024.72,0019.81,0019.11
2023-12-14 07:24:00,SystemResetWarning,0835.1,5.00,000.00,018.7,017.6,000.0,027.1,020.0,23.3,0000.4,0024.67,0019.78,0019.11
2023-12-14 07:25:00,SystemResetWarning,0835.1,5.00,000.00,018.7,017.6,000.0,027.2,020.0,23.3,0000.3,0024.70,0019.79,0019.14
2023-12-14 07:26:00,SystemResetWarning,0835.1,5.00,000.00,018.7,017.6,000.0,027.2,020.0,23.3,0000.3,0025.04,0019.79,0019.15
2023-12-14 07:27:00,SystemResetWarning,0835.0,5.00,000.00,018.7,017.6,000.0,027.2,020.0,23.3,0000.3,0025.19,0019.82,0019.18
2023-12-14 07:28:00,SystemResetWarning,0835.0,5.00,000.00,018.7,017.6,000.0,027.2,020.0,23.3,0000.3,0025.36,0019.80,0019.14
2023-12-14 07:29:00,SystemResetWarning,0835.0,5.00,000.00,018.7,017.6,000.0,027.2,020.0,23.3,0000.3,0025.77,0019.76,0019.11
2023-12-14 07:30:00,SystemResetWarning,0835.0,4.99,000.00,018.7,017.6,000.0,027.2,020.0,23.2,0000.4,0025.70,0019.72,0019.08
2023-12-14 07:31:00,SystemResetWarning,0835.0,4.99,000.00,018.7,017.6,000.0,027.2,020.0,23.2,0000.3,0025.64,0019.68,0019.05
2023-12-14 07:32:00,SystemResetWarning,0835.0,4.99,000.00,018.7,017.6,000.0,027.2,020.0,23.2,0000.3,0025.22,0019.68,0019.05
2023-12-14 07:33:00,SystemResetWarning,0835.0,5.00,000.00,018.7,017.6,000.0,027.2,020.0,23.2,0000.2,0025.13,0019.72,0019.06
2023-12-14 07:34:00,SystemResetWarning,0835.0,5.00,000.00,018.7,017.6,000.0,027.2,020.0,23.2,0000.0,0024.77,0019.68,0019.02
2023-12-14 07:35:00,SystemResetWarning,0835.0,5.01,000.00,018.7,017.6,000.0,027.2,020.0,23.2,0000.0,0024.73,0019.68,0019.02
2023-12-14 07:36:00,SystemResetWarning,0835.0,5.01,000.00,018.7,017.6,000.0,027.2,020.0,23.2,0000.0,0024.71,0019.70,0019.04
2023-12-14 07:37:00,SystemResetWarning,0835.0,5.01,000.00,018.7,017.6,000.0,027.1,020.0,23.2,-000.2,0024.48,0019.71,0019.06
2023-12-14 07:38:00,SystemResetWarning,0834.9,5.00,000.00,018.7,017.6,000.0,027.1,020.1,23.2,-000.2,0024.34,0019.74,0019.06
2023-12-14 07:39:00,SystemResetWarning,0835.0,4.99,000.00,018.8,017.7,000.0,027.1,020.5,23.2,-000.3,0024.45,0019.72,0019.06
2023-12-14 07:40:00,SystemResetWarning,0835.1,5.00,000.00,018.9,018.4,000.0,027.1,020.8,23.1,-000.4,0023.93,0019.70,0019.05
2023-12-14 07:41:00,SystemResetWarning,0835.1,5.00,000.00,019.0,018.7,000.0,027.1,020.7,23.0,-000.5,0024.04,0019.68,0019.02
2023-12-14 07:42:00,SystemResetWarning,0835.0,4.99,000.00,019.0,018.6,000.0,027.1,020.5,23.0,-000.7,0024.34,0019.61,0018.96
2023-12-14 07:43:00,SystemResetWarning,0835.0,4.99,000.00,019.0,018.6,000.0,027.2,020.4,23.0,-000.7,0024.54,0019.55,0018.91
2023-12-14 07:44:00,SystemResetWarning,0834.9,5.00,000.00,019.0,018.5,000.0,027.2,020.3,23.0,-000.7,0024.48,0019.48,0018.84
2023-12-14 07:45:00,SystemResetWarning,0835.0,5.00,000.00,019.0,018.4,000.0,027.2,020.2,23.0,-000.6,0024.45,0019.42,0018.77
2023-12-14 07:46:00,SystemResetWarning,0835.4,4.99,000.00,018.9,018.4,000.0,027.2,020.1,23.0,-000.6,0024.48,0019.41,0018.73
2023-12-14 07:47:00,SystemResetWarning,0835.2,5.00,000.00,018.9,018.3,000.0,027.2,020.1,23.1,-000.6,0024.51,0019.37,0018.69
2023-12-14 07:48:00,SystemResetWarning,0835.1,5.00,000.00,018.9,018.2,000.0,027.2,020.1,23.1,-000.5,0024.46,0019.32,0018.63
2023-12-14 07:49:00,SystemResetWarning,0835.2,5.00,000.00,018.9,018.2,000.0,027.2,020.1,23.1,-000.4,0024.27,0019.21,0018.57
2023-12-14 07:50:00,SystemResetWarning,0835.4,5.00,000.00,018.9,018.1,000.0,027.2,020.0,23.1,-000.5,0024.00,0019.16,0018.55
2023-12-14 07:51:00,SystemResetWarning,0835.3,5.00,000.00,018.8,018.1,000.0,027.2,020.0,23.1,-000.7,0023.94,0019.17,0018.57
2023-12-14 07:52:00,SystemResetWarning,0834.7,5.00,000.00,018.8,018.0,000.0,027.2,020.0,23.1,-000.7,0024.27,0019.24,0018.64
2023-12-14 07:53:00,SystemResetWarning,0834.7,5.00,000.00,018.8,018.0,000.0,027.2,020.0,23.2,-000.6,0023.95,0019.32,0018.73
2023-12-14 07:54:00,SystemResetWarning,0834.8,5.00,000.00,018.8,018.0,000.0,027.2,020.0,23.2,-000.5,0023.94,0019.39,0018.79
2023-12-14 07:55:00,SystemResetWarning,0834.7,5.01,000.00,018.8,018.0,000.0,027.1,020.0,23.2,-000.5,0024.08,0019.47,0018.85
2023-12-14 07:56:00,SystemResetWarning,0834.8,5.00,000.00,018.8,018.0,000.0,027.1,020.0,23.2,-000.4,0024.38,0019.55,0018.92
2023-12-14 07:57:00,SystemResetWarning,0835.2,5.00,000.00,018.8,018.0,000.0,027.1,020.0,23.2,-000.3,0024.56,0019.55,0018.94
2023-12-14 07:58:00,SystemResetWarning,0834.9,5.00,000.00,018.8,018.0,000.0,027.1,020.0,23.2,-000.2,0024.74,0019.60,0018.96
2023-12-14 07:59:00,SystemResetWarning,0835.1,5.00,000.00,018.8,017.9,000.0,027.1,020.0,23.2,-000.2,0024.98,0019.60,0018.95
